VCV3503 MUHA-SVMI

Flight info

Callsign VCV3503
Flight time 1h 19m
Altitude 39000
Route KAVUL6A UCL UL332 VUNUM DCT ISISU ALDAK1
Aircraft A346/H-SDE2E3FGHIJ3J4J5M1RWXY/LB1D1

Departure

Time 2026-05-06 11:24
Airport José Martí International Airport (MUHA)

Arrival

Time 2026-05-06 12:43
Airport Maiquetía Simón Bolívar International Airport (SVMI)
Time Latitude Longitude Altitude Speed Heading
2026-05-06 10:43 22.99620 -82.40616 225 ft 0 kts 301°
2026-05-06 11:12 22.99611 -82.40598 226 ft 4 kts 301°
2026-05-06 11:12 22.99600 -82.40578 234 ft 4 kts 297°
2026-05-06 11:12 22.99593 -82.40562 225 ft 4 kts 285°
2026-05-06 11:13 22.99591 -82.40536 231 ft 4 kts 262°
2026-05-06 11:13 22.99602 -82.40506 229 ft 4 kts 225°
2026-05-06 11:13 22.99607 -82.40502 225 ft 0 kts 220°
2026-05-06 11:17 22.99602 -82.40507 229 ft 3 kts 221°
2026-05-06 11:17 22.99579 -82.40533 232 ft 7 kts 232°
2026-05-06 11:17 22.99543 -82.40585 228 ft 11 kts 233°
2026-05-06 11:17 22.99492 -82.40661 229 ft 14 kts 233°
2026-05-06 11:18 22.99429 -82.40758 228 ft 15 kts 235°
2026-05-06 11:18 22.99382 -82.40824 229 ft 12 kts 219°
2026-05-06 11:18 22.99302 -82.40815 226 ft 14 kts 146°
2026-05-06 11:18 22.99226 -82.40779 229 ft 11 kts 194°
2026-05-06 11:19 22.99163 -82.40853 228 ft 15 kts 234°
2026-05-06 11:19 22.99095 -82.40956 229 ft 18 kts 234°
2026-05-06 11:19 22.99014 -82.41076 229 ft 21 kts 234°
2026-05-06 11:19 22.98923 -82.41214 229 ft 23 kts 234°
2026-05-06 11:20 22.98823 -82.41363 231 ft 25 kts 234°
2026-05-06 11:20 22.98717 -82.41524 229 ft 27 kts 234°
2026-05-06 11:20 22.98602 -82.41697 228 ft 29 kts 234°
2026-05-06 11:20 22.98483 -82.41876 229 ft 29 kts 234°
2026-05-06 11:21 22.98363 -82.42059 231 ft 30 kts 234°
2026-05-06 11:21 22.98266 -82.42208 229 ft 20 kts 234°
2026-05-06 11:21 22.98186 -82.42329 231 ft 17 kts 234°
2026-05-06 11:21 22.98110 -82.42442 230 ft 20 kts 234°
2026-05-06 11:22 22.98053 -82.42527 229 ft 11 kts 233°
2026-05-06 11:22 22.97980 -82.42561 229 ft 13 kts 167°
2026-05-06 11:22 22.97902 -82.42507 230 ft 8 kts 141°
2026-05-06 11:22 22.97881 -82.42468 225 ft 5 kts 85°
2026-05-06 11:23 22.97894 -82.42443 229 ft 2 kts 53°
2026-05-06 11:23 22.97911 -82.42418 227 ft 10 kts 53°
2026-05-06 11:23 22.98087 -82.42154 230 ft 79 kts 54°
2026-05-06 11:23 22.98539 -82.41474 226 ft 141 kts 54°
2026-05-06 11:24 22.99212 -82.40450 250 ft 188 kts 54°
2026-05-06 11:24 22.99973 -82.39267 922 ft 189 kts 54°
2026-05-06 11:24 23.00729 -82.38111 1709 ft 188 kts 55°
2026-05-06 11:24 23.01385 -82.36873 2337 ft 194 kts 72°
2026-05-06 11:25 23.01532 -82.35367 2780 ft 207 kts 93°
2026-05-06 11:25 23.01544 -82.33762 3274 ft 219 kts 82°
2026-05-06 11:25 23.01881 -82.32107 3753 ft 231 kts 79°
2026-05-06 11:25 23.02165 -82.30315 4144 ft 250 kts 81°
2026-05-06 11:26 23.02479 -82.28369 4570 ft 269 kts 79°
2026-05-06 11:26 23.02831 -82.26370 5274 ft 275 kts 78°
2026-05-06 11:26 23.03205 -82.24321 6139 ft 277 kts 78°
2026-05-06 11:26 23.03586 -82.22257 6960 ft 280 kts 78°
2026-05-06 11:27 23.03972 -82.20161 7754 ft 284 kts 78°
2026-05-06 11:27 23.04363 -82.18039 8541 ft 288 kts 77°
2026-05-06 11:27 23.04754 -82.15881 9357 ft 292 kts 79°
2026-05-06 11:27 23.04721 -82.13654 10111 ft 301 kts 102°
2026-05-06 11:28 23.03867 -82.11547 10696 ft 314 kts 125°
2026-05-06 11:28 23.02231 -82.09894 11066 ft 333 kts 149°
2026-05-06 11:28 23.00074 -82.08907 11438 ft 350 kts 160°
2026-05-06 11:28 22.97723 -82.07997 11790 ft 368 kts 160°
2026-05-06 11:29 22.95250 -82.07039 12116 ft 386 kts 160°
2026-05-06 11:29 22.92666 -82.06024 12466 ft 402 kts 160°
2026-05-06 11:29 22.90023 -82.04974 13096 ft 408 kts 160°
2026-05-06 11:29 22.87347 -82.03906 13844 ft 411 kts 159°
2026-05-06 11:30 22.84641 -82.02821 14481 ft 416 kts 159°
2026-05-06 11:30 22.81905 -82.01723 15040 ft 422 kts 159°
2026-05-06 11:30 22.79132 -82.00608 15583 ft 428 kts 159°
2026-05-06 11:30 22.76327 -81.99479 16121 ft 434 kts 159°
2026-05-06 11:31 22.73470 -81.98330 16655 ft 440 kts 159°
2026-05-06 11:31 22.70582 -81.97169 17182 ft 446 kts 159°
2026-05-06 11:31 22.67657 -81.95993 17698 ft 451 kts 159°
2026-05-06 11:31 22.64696 -81.94803 18202 ft 457 kts 159°
2026-05-06 11:32 22.61734 -81.93613 18632 ft 462 kts 159°
2026-05-06 11:32 22.58702 -81.92395 19092 ft 466 kts 159°
2026-05-06 11:32 22.55654 -81.91170 19603 ft 468 kts 159°
2026-05-06 11:32 22.52595 -81.89942 20145 ft 470 kts 159°
2026-05-06 11:33 22.49521 -81.88710 20661 ft 472 kts 159°
2026-05-06 11:33 22.46420 -81.87467 21163 ft 475 kts 159°
2026-05-06 11:33 22.43311 -81.86222 21656 ft 478 kts 159°
2026-05-06 11:33 22.40184 -81.84970 22152 ft 481 kts 160°
2026-05-06 11:34 22.37034 -81.83710 22634 ft 484 kts 160°
2026-05-06 11:34 22.33870 -81.82445 23124 ft 486 kts 160°
2026-05-06 11:34 22.30683 -81.81171 23594 ft 489 kts 160°
2026-05-06 11:34 22.27488 -81.79895 23984 ft 492 kts 160°
2026-05-06 11:35 22.24262 -81.78609 24380 ft 495 kts 160°
2026-05-06 11:35 22.21027 -81.77322 24786 ft 497 kts 159°
2026-05-06 11:35 22.17772 -81.76024 25203 ft 499 kts 159°
2026-05-06 11:35 22.14501 -81.74720 25607 ft 502 kts 159°
2026-05-06 11:36 22.11257 -81.73426 26013 ft 504 kts 159°
2026-05-06 11:36 22.07957 -81.72110 26414 ft 507 kts 159°
2026-05-06 11:36 22.04640 -81.70789 26813 ft 510 kts 159°
2026-05-06 11:36 22.01305 -81.69462 27213 ft 512 kts 159°
2026-05-06 11:37 21.97950 -81.68127 27621 ft 515 kts 159°
2026-05-06 11:37 21.94579 -81.66787 28029 ft 518 kts 159°
2026-05-06 11:37 21.91190 -81.65440 28428 ft 521 kts 159°
2026-05-06 11:37 21.87787 -81.64089 28963 ft 520 kts 159°
2026-05-06 11:38 21.84403 -81.62745 29612 ft 517 kts 159°
2026-05-06 11:38 21.81032 -81.61408 30259 ft 515 kts 159°
2026-05-06 11:38 21.77674 -81.60075 30791 ft 513 kts 159°
2026-05-06 11:38 21.74329 -81.58749 31312 ft 512 kts 159°
2026-05-06 11:39 21.70983 -81.57424 31827 ft 511 kts 159°
2026-05-06 11:39 21.67696 -81.55973 32339 ft 510 kts 155°
2026-05-06 11:39 21.64531 -81.54261 32871 ft 509 kts 150°
2026-05-06 11:39 21.61509 -81.52292 33402 ft 507 kts 145°
2026-05-06 11:40 21.58654 -81.50081 33950 ft 505 kts 140°
2026-05-06 11:40 21.55979 -81.47645 34428 ft 503 kts 135°
2026-05-06 11:40 21.53504 -81.45006 34928 ft 499 kts 130°
2026-05-06 11:40 21.51169 -81.42243 35420 ft 498 kts 129°
2026-05-06 11:41 21.48868 -81.39469 35889 ft 497 kts 129°
2026-05-06 11:41 21.46564 -81.36690 36318 ft 496 kts 129°
2026-05-06 11:41 21.44292 -81.33958 36715 ft 496 kts 130°
2026-05-06 11:41 21.41993 -81.31204 37124 ft 495 kts 130°
2026-05-06 11:42 21.39689 -81.28452 37501 ft 495 kts 130°
2026-05-06 11:42 21.37379 -81.25699 37808 ft 497 kts 130°
2026-05-06 11:42 21.35049 -81.22925 38070 ft 499 kts 130°
2026-05-06 11:42 21.32721 -81.20155 38316 ft 501 kts 130°
2026-05-06 11:43 21.30380 -81.17371 38582 ft 502 kts 130°
2026-05-06 11:43 21.28037 -81.14587 38814 ft 503 kts 130°
2026-05-06 11:43 21.25687 -81.11795 38997 ft 505 kts 130°
2026-05-06 11:44 21.18600 -81.03386 39035 ft 506 kts 130°
2026-05-06 11:44 21.13912 -80.97831 39035 ft 506 kts 130°
2026-05-06 11:45 21.09188 -80.92239 39034 ft 506 kts 130°
2026-05-06 11:45 21.04459 -80.86633 39037 ft 506 kts 130°
2026-05-06 11:46 20.99757 -80.81019 39036 ft 507 kts 129°
2026-05-06 11:46 20.95045 -80.75396 39036 ft 507 kts 130°
2026-05-06 11:47 20.90334 -80.69784 39034 ft 507 kts 130°
2026-05-06 11:47 20.85620 -80.64177 39029 ft 506 kts 130°
2026-05-06 11:48 20.80907 -80.58576 39032 ft 506 kts 130°
2026-05-06 11:48 20.76189 -80.52974 39041 ft 506 kts 129°
2026-05-06 11:49 20.71465 -80.47372 39033 ft 507 kts 129°
2026-05-06 11:49 20.66739 -80.41772 39036 ft 507 kts 129°
2026-05-06 11:50 20.62034 -80.36202 39036 ft 507 kts 129°
2026-05-06 11:50 20.57270 -80.30568 39036 ft 507 kts 129°
2026-05-06 11:51 20.52560 -80.25005 39031 ft 507 kts 130°
2026-05-06 11:51 20.47816 -80.19436 39039 ft 506 kts 130°
2026-05-06 11:52 20.43057 -80.13887 39032 ft 506 kts 130°
2026-05-06 11:52 20.32374 -80.01433 39037 ft 507 kts 130°
2026-05-06 11:53 20.02835 -79.67129 39035 ft 507 kts 130°
2026-05-06 11:53 19.73346 -79.33009 39032 ft 505 kts 129°
2026-05-06 11:54 19.44530 -78.99846 39026 ft 505 kts 129°
2026-05-06 11:54 19.15077 -78.66134 39031 ft 504 kts 129°
2026-05-06 11:55 18.85535 -78.32507 39027 ft 503 kts 129°
2026-05-06 11:55 18.56231 -77.99336 39011 ft 502 kts 130°
2026-05-06 11:56 18.44302 -77.80848 39050 ft 495 kts 113°
2026-05-06 11:56 18.34584 -77.61049 39047 ft 494 kts 114°
2026-05-06 11:56 18.14829 -77.21327 39043 ft 496 kts 114°
2026-05-06 11:57 17.95193 -76.82131 39033 ft 496 kts 116°
2026-05-06 11:57 17.82181 -76.64058 39032 ft 500 kts 127°
2026-05-06 11:57 17.68355 -76.46709 39017 ft 500 kts 127°
2026-05-06 11:58 17.40607 -76.11938 39030 ft 501 kts 127°
2026-05-06 11:58 17.12803 -75.77271 39032 ft 498 kts 128°
2026-05-06 11:59 16.85283 -75.43137 39019 ft 497 kts 128°
2026-05-06 11:59 16.58010 -75.09485 39019 ft 498 kts 128°
2026-05-06 12:00 16.30250 -74.75386 39018 ft 498 kts 129°
2026-05-06 12:00 16.03497 -74.42681 39014 ft 500 kts 129°
2026-05-06 12:01 15.76771 -74.10158 39010 ft 502 kts 129°
2026-05-06 12:01 15.50621 -73.76749 39008 ft 500 kts 128°
2026-05-06 12:02 15.25047 -73.43430 39010 ft 502 kts 130°
2026-05-06 12:02 14.98525 -73.09050 39001 ft 503 kts 130°
2026-05-06 12:03 14.71686 -72.74447 39008 ft 503 kts 130°
2026-05-06 12:03 14.49602 -72.45980 39008 ft 505 kts 129°
2026-05-06 12:04 14.23166 -72.11722 39000 ft 505 kts 130°
2026-05-06 12:04 13.96610 -71.77804 39019 ft 504 kts 130°
2026-05-06 12:05 13.69895 -71.43814 39009 ft 504 kts 131°
2026-05-06 12:05 13.43030 -71.09777 39003 ft 502 kts 131°
2026-05-06 12:06 13.16543 -70.76496 39006 ft 503 kts 131°
2026-05-06 12:06 12.89557 -70.42778 38993 ft 500 kts 131°
2026-05-06 12:07 12.63149 -70.09923 39008 ft 498 kts 131°
2026-05-06 12:07 12.54792 -69.99555 39005 ft 498 kts 131°
2026-05-06 12:08 12.50365 -69.94091 39007 ft 498 kts 133°
2026-05-06 12:08 12.45778 -69.88777 39013 ft 497 kts 134°
2026-05-06 12:09 12.41168 -69.83471 39006 ft 498 kts 134°
2026-05-06 12:09 12.36587 -69.78201 39005 ft 498 kts 134°
2026-05-06 12:10 12.31988 -69.72913 39002 ft 497 kts 134°
2026-05-06 12:10 12.27394 -69.67629 38995 ft 496 kts 134°
2026-05-06 12:11 12.22796 -69.62338 38999 ft 498 kts 134°
2026-05-06 12:11 12.18188 -69.57048 39000 ft 497 kts 134°
2026-05-06 12:12 12.13590 -69.51766 39003 ft 497 kts 134°
2026-05-06 12:12 12.08976 -69.46473 39002 ft 498 kts 134°
2026-05-06 12:13 12.04359 -69.41178 39006 ft 498 kts 134°
2026-05-06 12:13 11.99746 -69.35891 39004 ft 497 kts 134°
2026-05-06 12:14 11.95139 -69.30610 39000 ft 498 kts 134°
2026-05-06 12:14 11.90534 -69.25346 39005 ft 495 kts 133°
2026-05-06 12:15 11.85940 -69.20107 39009 ft 496 kts 134°
2026-05-06 12:15 11.81327 -69.14872 39007 ft 495 kts 134°
2026-05-06 12:16 11.76734 -69.09650 39002 ft 495 kts 134°
2026-05-06 12:16 11.74440 -69.07049 38730 ft 491 kts 133°
2026-05-06 12:16 11.72160 -69.04460 37984 ft 492 kts 134°
2026-05-06 12:17 11.70258 -69.02298 37196 ft 497 kts 134°
2026-05-06 12:17 11.68369 -69.00153 36423 ft 504 kts 134°
2026-05-06 12:17 11.66367 -68.97883 35704 ft 508 kts 134°
2026-05-06 12:17 11.64798 -68.96104 35195 ft 510 kts 134°
2026-05-06 12:18 11.63340 -68.94452 34735 ft 511 kts 134°
2026-05-06 12:18 11.62398 -68.93386 34452 ft 512 kts 134°
2026-05-06 12:18 11.60009 -68.90679 33751 ft 513 kts 134°
2026-05-06 12:18 11.57622 -68.87981 33197 ft 508 kts 133°
2026-05-06 12:19 11.55269 -68.85314 32676 ft 503 kts 133°
2026-05-06 12:19 11.52938 -68.82664 32023 ft 500 kts 133°
2026-05-06 12:19 11.50620 -68.80035 31449 ft 497 kts 133°
2026-05-06 12:19 11.48312 -68.77425 30896 ft 492 kts 133°
2026-05-06 12:20 11.46031 -68.74844 30411 ft 487 kts 133°
2026-05-06 12:20 11.43769 -68.72284 29855 ft 483 kts 133°
2026-05-06 12:20 11.41529 -68.69747 29177 ft 480 kts 133°
2026-05-06 12:20 11.39332 -68.67265 28662 ft 474 kts 133°
2026-05-06 12:21 11.37132 -68.64780 28230 ft 468 kts 132°
2026-05-06 12:21 11.34959 -68.62325 27798 ft 463 kts 132°
2026-05-06 12:21 11.32814 -68.59900 27379 ft 458 kts 132°
2026-05-06 12:21 11.30691 -68.57500 26953 ft 453 kts 132°
2026-05-06 12:22 11.28591 -68.55129 26536 ft 448 kts 131°
2026-05-06 12:22 11.26507 -68.52776 26115 ft 444 kts 131°
2026-05-06 12:22 11.24443 -68.50445 25695 ft 441 kts 131°
2026-05-06 12:22 11.22398 -68.48132 25257 ft 437 kts 131°
2026-05-06 12:23 11.20365 -68.45836 24856 ft 434 kts 131°
2026-05-06 12:23 11.18297 -68.43605 24418 ft 432 kts 136°
2026-05-06 12:23 11.15891 -68.41779 23992 ft 430 kts 148°
2026-05-06 12:23 11.13187 -68.40489 23580 ft 428 kts 159°
2026-05-06 12:24 11.10374 -68.39525 23137 ft 424 kts 161°
2026-05-06 12:24 11.07580 -68.38622 22716 ft 419 kts 161°
2026-05-06 12:24 11.04826 -68.37694 22293 ft 414 kts 156°
2026-05-06 12:24 11.02362 -68.36237 21870 ft 407 kts 140°
2026-05-06 12:25 11.00452 -68.34203 21485 ft 399 kts 124°
2026-05-06 12:25 10.98942 -68.31862 21097 ft 394 kts 120°
2026-05-06 12:25 10.97492 -68.29500 20710 ft 391 kts 120°
2026-05-06 12:25 10.96055 -68.27152 20309 ft 388 kts 120°
2026-05-06 12:26 10.94623 -68.24828 19918 ft 385 kts 120°
2026-05-06 12:26 10.93195 -68.22522 19529 ft 383 kts 120°
2026-05-06 12:26 10.91787 -68.20260 19145 ft 381 kts 120°
2026-05-06 12:26 10.90371 -68.17989 18755 ft 379 kts 119°
2026-05-06 12:27 10.88957 -68.15727 18355 ft 377 kts 119°
2026-05-06 12:27 10.87552 -68.13477 17932 ft 375 kts 119°
2026-05-06 12:27 10.86157 -68.11245 17539 ft 371 kts 119°
2026-05-06 12:27 10.84776 -68.09035 17164 ft 368 kts 119°
2026-05-06 12:28 10.83409 -68.06850 16791 ft 364 kts 119°
2026-05-06 12:28 10.82051 -68.04680 16431 ft 360 kts 119°
2026-05-06 12:28 10.80708 -68.02534 16074 ft 357 kts 119°
2026-05-06 12:28 10.79395 -68.00438 15724 ft 353 kts 120°
2026-05-06 12:29 10.78066 -67.98316 15352 ft 350 kts 120°
2026-05-06 12:29 10.76777 -67.96258 15004 ft 347 kts 120°
2026-05-06 12:29 10.75485 -67.94198 14646 ft 344 kts 120°
2026-05-06 12:29 10.74197 -67.92143 14290 ft 341 kts 120°
2026-05-06 12:30 10.72925 -67.90115 13938 ft 338 kts 120°
2026-05-06 12:30 10.71663 -67.88102 13558 ft 335 kts 120°
2026-05-06 12:30 10.70433 -67.86141 13192 ft 331 kts 120°
2026-05-06 12:30 10.69202 -67.84177 12848 ft 327 kts 120°
2026-05-06 12:31 10.67986 -67.82239 12495 ft 323 kts 121°
2026-05-06 12:31 10.66780 -67.80317 12132 ft 320 kts 121°
2026-05-06 12:31 10.65585 -67.78413 11769 ft 318 kts 121°
2026-05-06 12:31 10.64398 -67.76523 11415 ft 315 kts 121°
2026-05-06 12:32 10.63214 -67.74638 11061 ft 313 kts 121°
2026-05-06 12:32 10.62044 -67.72775 10712 ft 311 kts 122°
2026-05-06 12:32 10.60882 -67.70926 10377 ft 307 kts 122°
2026-05-06 12:32 10.59766 -67.69151 10284 ft 294 kts 122°
2026-05-06 12:33 10.58746 -67.67394 10172 ft 283 kts 113°
2026-05-06 12:33 10.58254 -67.65500 10064 ft 273 kts 97°
2026-05-06 12:33 10.58229 -67.63562 9723 ft 273 kts 90°
2026-05-06 12:33 10.58298 -67.61633 9382 ft 272 kts 89°
2026-05-06 12:34 10.58375 -67.59740 9070 ft 270 kts 90°
2026-05-06 12:34 10.58450 -67.57833 8760 ft 268 kts 90°
2026-05-06 12:34 10.58520 -67.55944 8462 ft 266 kts 90°
2026-05-06 12:34 10.58589 -67.54065 8159 ft 265 kts 90°
2026-05-06 12:35 10.58652 -67.52194 7852 ft 264 kts 89°
2026-05-06 12:35 10.58717 -67.50325 7552 ft 264 kts 89°
2026-05-06 12:35 10.58782 -67.48462 7249 ft 263 kts 89°
2026-05-06 12:35 10.58846 -67.46601 6956 ft 263 kts 89°
2026-05-06 12:36 10.58910 -67.44740 6664 ft 263 kts 89°
2026-05-06 12:36 10.58974 -67.42878 6359 ft 263 kts 89°
2026-05-06 12:36 10.59038 -67.41041 6056 ft 262 kts 89°
2026-05-06 12:36 10.59100 -67.39185 5756 ft 261 kts 89°
2026-05-06 12:37 10.59162 -67.37334 5463 ft 261 kts 89°
2026-05-06 12:37 10.59225 -67.35481 5165 ft 260 kts 89°
2026-05-06 12:37 10.59288 -67.33650 4866 ft 260 kts 89°
2026-05-06 12:37 10.59349 -67.31812 4543 ft 259 kts 89°
2026-05-06 12:38 10.59412 -67.29973 4240 ft 259 kts 89°
2026-05-06 12:38 10.59468 -67.28127 4057 ft 263 kts 90°
2026-05-06 12:38 10.59492 -67.26290 4043 ft 259 kts 90°
2026-05-06 12:38 10.59527 -67.24508 4030 ft 245 kts 89°
2026-05-06 12:39 10.59587 -67.22825 4026 ft 231 kts 88°
2026-05-06 12:39 10.59687 -67.21226 3917 ft 224 kts 87°
2026-05-06 12:39 10.59784 -67.19646 3672 ft 224 kts 87°
2026-05-06 12:39 10.59857 -67.18058 3407 ft 225 kts 88°
2026-05-06 12:40 10.59911 -67.16476 3161 ft 221 kts 88°
2026-05-06 12:40 10.59957 -67.14923 2842 ft 218 kts 89°
2026-05-06 12:40 10.60001 -67.13377 2507 ft 216 kts 89°
2026-05-06 12:40 10.60046 -67.11860 2183 ft 213 kts 89°
2026-05-06 12:41 10.60088 -67.10360 1897 ft 211 kts 88°
2026-05-06 12:41 10.60138 -67.08878 1619 ft 208 kts 88°
2026-05-06 12:41 10.60185 -67.07420 1350 ft 203 kts 88°
2026-05-06 12:41 10.60228 -67.06022 1084 ft 192 kts 88°
2026-05-06 12:42 10.60268 -67.04730 865 ft 179 kts 88°
2026-05-06 12:42 10.60306 -67.03507 661 ft 166 kts 89°
2026-05-06 12:42 10.60342 -67.02370 448 ft 155 kts 89°
2026-05-06 12:42 10.60382 -67.01296 277 ft 149 kts 88°
2026-05-06 12:43 10.60411 -67.00350 240 ft 105 kts 88°
2026-05-06 12:43 10.60426 -66.99830 230 ft 42 kts 89°
2026-05-06 12:43 10.60419 -66.99696 226 ft 13 kts 123°
2026-05-06 12:43 10.60311 -66.99671 216 ft 21 kts 179°
2026-05-06 12:44 10.60174 -66.99672 218 ft 13 kts 196°
2026-05-06 12:44 10.60137 -66.99740 226 ft 12 kts 269°
2026-05-06 12:44 10.60136 -66.99824 229 ft 12 kts 269°
2026-05-06 12:44 10.60132 -66.99910 226 ft 12 kts 261°
2026-05-06 12:45 10.60116 -67.00005 230 ft 15 kts 263°
2026-05-06 12:45 10.60113 -67.00121 234 ft 18 kts 269°
2026-05-06 12:45 10.60051 -67.00291 234 ft 13 kts 197°
2026-05-06 12:46 10.60002 -67.00374 235 ft 16 kts 265°
2026-05-06 12:46 10.59998 -67.00495 237 ft 17 kts 269°
2026-05-06 12:46 10.59989 -67.00569 238 ft 8 kts 232°
2026-05-06 12:46 10.59933 -67.00584 238 ft 10 kts 181°
2026-05-06 12:47 10.59871 -67.00582 238 ft 5 kts 178°
2026-05-06 12:47 10.59859 -67.00582 238 ft 0 kts 178°
2026-05-06 12:47 10.59858 -67.00582 238 ft 0 kts 178°
2026-05-06 12:47 10.59853 -67.00582 238 ft 1 kts 178°